• In Austria
  • List of Countries
  • For 7 days
  • Water Temperature
  • Satellite Maps
  • Weather Map
  • News
  • Weather Widgets
  • user-avatar
    Login

    Hourly Weather Kadyshche

    Today, 24 September, Monday

    Time Temperature Precipitation Wind Pressure Humidity
    00:00 +13°C° 0.4 mm 6 mps 737 mmHg 65%
    01:00 +12°C° 0.4 mm 7 mps 736 mmHg 62%
    02:00 +13°C° 0 mm 5 mps 734 mmHg 64%
    03:00 +13°C° 1.1 mm 6 mps 733 mmHg 69%
    04:00 +13°C° 1.1 mm 6 mps 732 mmHg 74%
    05:00 +12°C° 1.1 mm 7 mps 731 mmHg 78%
    06:00 +12°C° 0.4 mm 8 mps 732 mmHg 79%
    07:00 +12°C° 0.4 mm 10 mps 732 mmHg 80%
    08:00 +12°C° 0 mm 11 mps 732 mmHg 81%
    09:00 +11°C° 0.1 mm 11 mps 733 mmHg 80%
    10:00 +9°C° 0.1 mm 10 mps 735 mmHg 78%
    11:00 +8°C° 0.1 mm 10 mps 736 mmHg 77%
    12:00 +8°C° 0 mm 10 mps 737 mmHg 75%
    13:00 +8°C° 0 mm 9 mps 738 mmHg 72%
    14:00 +9°C° 0 mm 8 mps 739 mmHg 70%
    15:00 +9°C° 0.1 mm 8 mps 739 mmHg 70%
    16:00 +8°C° 0.1 mm 9 mps 740 mmHg 69%
    17:00 +8°C° 0.1 mm 9 mps 740 mmHg 69%
    18:00 +9°C° 0.1 mm 8 mps 740 mmHg 69%
    19:00 +7°C° 0.1 mm 8 mps 741 mmHg 70%
    20:00 +8°C° 0.1 mm 7 mps 741 mmHg 71%
    21:00 +6°C° 0 mm 7 mps 741 mmHg 73%
    22:00 +6°C° 0 mm 7 mps 742 mmHg 75%
    23:00 +6°C° 0 mm 7 mps 742 mmHg 77%

    Tomorrow, 25 September, Tuesday

    Time Temperature Precipitation Wind Pressure Humidity
    00:00 +5°C° 0 mm 6 mps 743 mmHg 78%
    01:00 +5°C° 0 mm 6 mps 743 mmHg 79%
    02:00 +5°C° 0 mm 6 mps 743 mmHg 80%
    03:00 +4°C° 0 mm 6 mps 744 mmHg 81%
    04:00 +4°C° 0 mm 6 mps 744 mmHg 81%
    05:00 +4°C° 0 mm 6 mps 745 mmHg 81%
    06:00 +4°C° 0 mm 7 mps 745 mmHg 79%
    07:00 +4°C° 0 mm 7 mps 746 mmHg 78%
    08:00 +5°C° 0 mm 7 mps 747 mmHg 76%
    09:00 +6°C° 0 mm 7 mps 747 mmHg 69%
    10:00 +7°C° 0 mm 8 mps 748 mmHg 62%
    11:00 +9°C° 0 mm 8 mps 749 mmHg 55%
    12:00 +10°C° 0.2 mm 8 mps 749 mmHg 54%
    13:00 +10°C° 0.2 mm 8 mps 749 mmHg 53%
    14:00 +10°C° 0.2 mm 8 mps 750 mmHg 52%
    15:00 +10°C° 0.1 mm 7 mps 750 mmHg 55%
    16:00 +9°C° 0.1 mm 6 mps 750 mmHg 58%
    17:00 +9°C° 0.1 mm 6 mps 751 mmHg 60%
    18:00 +8°C° 0.1 mm 5 mps 751 mmHg 64%
    19:00 +7°C° 0.1 mm 5 mps 752 mmHg 69%
    20:00 +6°C° 0.1 mm 4 mps 752 mmHg 73%
    21:00 +6°C° 0 mm 4 mps 753 mmHg 75%
    22:00 +5°C° 0 mm 4 mps 753 mmHg 77%
    23:00 +5°C° 0 mm 4 mps 754 mmHg 80%

    Day after tomorrow, 26 September, Wednesday

    Time Temperature Precipitation Wind Pressure Humidity
    00:00 +4°C° 0 mm 4 mps 754 mmHg 82%
    01:00 +4°C° 0 mm 4 mps 755 mmHg 84%
    02:00 +3°C° 0 mm 4 mps 755 mmHg 86%
    03:00 +3°C° 0 mm 3 mps 756 mmHg 88%
    04:00 +2°C° 0 mm 3 mps 756 mmHg 90%
    05:00 +2°C° 0 mm 3 mps 756 mmHg 92%
    06:00 +3°C° 0 mm 3 mps 757 mmHg 88%
    07:00 +3°C° 0 mm 3 mps 757 mmHg 84%
    08:00 +4°C° 0 mm 3 mps 757 mmHg 80%
    09:00 +7°C° 0 mm 3 mps 757 mmHg 70%
    10:00 +8°C° 0 mm 4 mps 757 mmHg 61%
    11:00 +10°C° 0 mm 4 mps 757 mmHg 52%
    12:00 +11°C° 0 mm 4 mps 757 mmHg 49%
    13:00 +12°C° 0 mm 4 mps 757 mmHg 46%
    14:00 +12°C° 0 mm 4 mps 756 mmHg 44%
    15:00 +12°C° 0 mm 4 mps 756 mmHg 47%
    16:00 +11°C° 0 mm 4 mps 755 mmHg 51%
    17:00 +11°C° 0 mm 3 mps 755 mmHg 55%
    18:00 +10°C° 0 mm 4 mps 755 mmHg 56%
    19:00 +10°C° 0 mm 4 mps 754 mmHg 57%
    20:00 +8°C° 0 mm 4 mps 754 mmHg 59%
    21:00 +8°C° 0 mm 5 mps 754 mmHg 58%
    22:00 +8°C° 0 mm 5 mps 753 mmHg 58%
    23:00 +8°C° 0 mm 5 mps 753 mmHg 57%

    27 September, Thursday

    Time Temperature Precipitation Wind Pressure Humidity
    00:00 +8°C° 0 mm 5 mps 752 mmHg 57%
    01:00 +8°C° 0 mm 6 mps 752 mmHg 57%
    02:00 +8°C° 0 mm 6 mps 752 mmHg 56%
    03:00 +8°C° 0 mm 6 mps 751 mmHg 55%
    04:00 +9°C° 0 mm 6 mps 751 mmHg 54%
    05:00 +9°C° 0 mm 6 mps 750 mmHg 53%
    06:00 +9°C° 0 mm 7 mps 750 mmHg 53%
    07:00 +10°C° 0 mm 7 mps 750 mmHg 53%
    08:00 +10°C° 0 mm 7 mps 749 mmHg 54%
    09:00 +11°C° 0 mm 7 mps 749 mmHg 54%
    10:00 +12°C° 0 mm 8 mps 749 mmHg 54%
    11:00 +13°C° 0 mm 8 mps 749 mmHg 54%
    12:00 +15°C° 0 mm 8 mps 749 mmHg 55%
    13:00 +17°C° 0 mm 8 mps 749 mmHg 55%
    14:00 +18°C° 0 mm 8 mps 748 mmHg 56%
    15:00 +17°C° 0 mm 7 mps 748 mmHg 59%
    16:00 +17°C° 0 mm 6 mps 748 mmHg 63%
    17:00 +17°C° 0 mm 5 mps 748 mmHg 66%
    18:00 +16°C° 0 mm 5 mps 748 mmHg 71%
    19:00 +15°C° 0 mm 4 mps 748 mmHg 76%
    20:00 +14°C° 0 mm 4 mps 748 mmHg 81%
    21:00 +13°C° 0 mm 4 mps 748 mmHg 83%
    22:00 +13°C° 0 mm 4 mps 748 mmHg 85%
    23:00 +12°C° 0 mm 4 mps 748 mmHg 87%

    28 September, Friday

    Time Temperature Precipitation Wind Pressure Humidity
    00:00 +12°C° 0 mm 4 mps 748 mmHg 88%
    01:00 +12°C° 0 mm 4 mps 748 mmHg 89%
    02:00 +12°C° 0 mm 4 mps 747 mmHg 90%
    03:00 +11°C° 0 mm 4 mps 747 mmHg 91%
    04:00 +11°C° 0 mm 4 mps 747 mmHg 92%
    05:00 +11°C° 0 mm 4 mps 747 mmHg 93%
    06:00 +11°C° 0 mm 4 mps 746 mmHg 90%
    07:00 +12°C° 0 mm 5 mps 746 mmHg 87%
    08:00 +13°C° 0 mm 5 mps 746 mmHg 83%
    09:00 +15°C° 0 mm 6 mps 746 mmHg 77%
    10:00 +17°C° 0 mm 6 mps 746 mmHg 70%
    11:00 +19°C° 0 mm 6 mps 746 mmHg 63%
    12:00 +20°C° 0 mm 6 mps 745 mmHg 61%
    13:00 +21°C° 0 mm 6 mps 745 mmHg 60%
    14:00 +22°C° 0 mm 6 mps 745 mmHg 58%
    15:00 +21°C° 0 mm 5 mps 744 mmHg 61%
    16:00 +20°C° 0 mm 4 mps 744 mmHg 64%
    17:00 +20°C° 0 mm 3 mps 744 mmHg 67%
    18:00 +18°C° 0 mm 3 mps 744 mmHg 72%
    19:00 +17°C° 0 mm 3 mps 744 mmHg 77%
    20:00 +16°C° 0 mm 2 mps 744 mmHg 81%
    21:00 +15°C° 0 mm 2 mps 744 mmHg 83%
    22:00 +15°C° 0 mm 2 mps 744 mmHg 85%
    23:00 +14°C° 0 mm 2 mps 744 mmHg 86%

    29 September, Saturday

    Time Temperature Precipitation Wind Pressure Humidity
    00:00 +14°C° 0 mm 2 mps 744 mmHg 84%
    01:00 +13°C° 0 mm 2 mps 744 mmHg 82%
    02:00 +13°C° 0 mm 2 mps 745 mmHg 80%
    03:00 +11°C° 0.1 mm 3 mps 745 mmHg 80%
    04:00 +11°C° 0.1 mm 3 mps 745 mmHg 79%
    05:00 +10°C° 0.1 mm 3 mps 745 mmHg 79%
    06:00 +10°C° 0.5 mm 3 mps 745 mmHg 81%
    07:00 +8°C° 0.5 mm 4 mps 745 mmHg 82%
    08:00 +7°C° 0.5 mm 4 mps 746 mmHg 84%
    09:00 +7°C° 0.7 mm 4 mps 747 mmHg 82%
    10:00 +7°C° 0.7 mm 4 mps 747 mmHg 79%
    11:00 +7°C° 0.7 mm 4 mps 748 mmHg 77%
    12:00 +8°C° 0 mm 4 mps 748 mmHg 69%
    13:00 +10°C° 0 mm 4 mps 748 mmHg 61%
    14:00 +12°C° 0 mm 5 mps 748 mmHg 53%
    15:00 +11°C° 0 mm 4 mps 749 mmHg 54%
    16:00 +11°C° 0 mm 4 mps 749 mmHg 55%
    17:00 +11°C° 0 mm 3 mps 749 mmHg 55%
    18:00 +9°C° 0 mm 3 mps 750 mmHg 58%
    19:00 +8°C° 0 mm 3 mps 750 mmHg 62%
    20:00 +5°C° 0 mm 3 mps 751 mmHg 65%
    21:00 +6°C° 0 mm 2 mps 751 mmHg 66%
    22:00 +5°C° 0 mm 2 mps 751 mmHg 67%
    23:00 +5°C° 0 mm 2 mps 752 mmHg 69%
    Show more